Regional Weather Roundup
Issued by NWS Cleveland, OH

Home | Current Version | Previous Version | Graphics & Text | Print | Product List | Glossary On
Versions: 1 2 3 4 5 6 7 8 9 10 11 12 13 14 15 16 17 18 19 20 21 22 23 24 25 26 27 28 29 30 31 32 33 34 35 36 37 38 39 40 41 42 43 44 45 46 47 48 49 50
000
ASUS41 KCLE 062010
RWRCLE
OHIO REGIONAL WEATHER ROUNDUP
NATIONAL WEATHER SERVICE WILMINGTON, OH
400 PM EDT MON JUL 06 2015

NOTE: "FAIR" INDICATES FEW OR NO CLOUDS BELOW 12,000 FEET WITH NO
SIGNIFICANT WEATHER AND/OR OBSTRUCTIONS TO VISIBILITY.

OHZ001>008-015>018-024>027-034-035-043-044-062100-
   NORTHWEST OHIO

CITY           SKY/WX    TMP DP  RH WIND       PRES   REMARKS
DEFIANCE       MOSUNNY   85  64  49 SW5       29.99F
FINDLAY        SUNNY     83  62  49 W6        30.02F
TOLEDO EXPRESS SUNNY     84  60  44 VRB7      30.01F
TOLEDO EXEC    SUNNY     84  59  42 SW10      30.02F
LIMA           MOSUNNY   82  63  52 W12       30.03F
$$

OHZ009>014-019>023-028>033-038-089-062100-
   NORTHEAST OHIO

CITY           SKY/WX    TMP DP  RH WIND       PRES   REMARKS
CLE-HOPKINS    MOSUNNY   82  62  50 N13       30.05S
CLE-LAKEFRONT  SUNNY     78  65  63 NW7       30.02S
CUY CO. ARPT   MOSUNNY   82  66  57 N12       30.05R
LORAIN-ELYRIA  MOSUNNY   83  63  50 N7        30.03F
ASHTABULA      PTSUNNY   75  66  73 E5        30.05R THUNDER
AKRON-CANTON   PTSUNNY   85  64  49 W8        30.03S
WOOSTER        MOSUNNY   82  65  56 NW7       30.04F
MANSFIELD      PTSUNNY   81  64  56 W8        30.05F
YOUNGSTOWN     PTSUNNY   78  68  71 SE5       30.04R THUNDER
$$

OHZ042-051>053-060>062-070>072-077>081-062100-
  SOUTHWEST OHIO

CITY           SKY/WX    TMP DP  RH WIND       PRES   REMARKS
CINC-COVINGTON MOSUNNY   84  66  54 W9        30.06F
CINC-LUNKEN    MOSUNNY   84  63  49 W9        30.05F
HAMILTON       MOSUNNY   85  66  53 VRB5      30.05F
DAYTON         MOSUNNY   83  64  52 W3        30.06F
WRIGHT-PAT AFB SUNNY     83  62  49 W7        30.05F
DAYTON GENERAL MOSUNNY   82  65  56 W6        30.06F
WILMINGTON     SUNNY     81  61  50 W12       30.07F
$$

OHZ036-037-039>041-045>050-054>059-063>069-073>076-082>088-062100-
  CENTRAL AND SOUTHEAST OHIO

CITY           SKY/WX    TMP DP  RH WIND       PRES   REMARKS
COLUMBUS       MOSUNNY   84  66  54 W10G18    30.03F
OSU AIRPORT    MOSUNNY   83  64  52 SW8       30.04F
BOLTON FIELD   SUNNY     82  66  57 SW7       30.05F
RICKENBACK AFB MOSUNNY   83  66  56 W12       30.04F
NEWARK         MOSUNNY   84  64  50 SW8       30.03F
MARION         MOSUNNY   82  62  50 SW12      30.04F
LANCASTER      MOSUNNY   83  67  58 SW10      30.05F
ZANESVILLE     MOSUNNY   82  64  54 W7        30.03F
NEW PHILLY     MOSUNNY   82  68  62 NW10      30.02F
$$



USA.gov is the U.S. government's official web portal to all federal, state and local government web resources and services.